Weather History for KMRB - February, 2012

Change the Weather History Date:

Thursday, February 9, 2012

  Actual Average Record
Temperature  
Mean Temperature 35 °F 33 °F  
Max Temperature 44 °F 42 °F 64 °F (1949)
Min Temperature 25 °F 24 °F -6 °F (1934)
Degree Days  
Heating Degree Days 30 32  
Month to date heating degree days 228 296  
Since 1 July heating degree days 2735 3379  
Cooling Degree Days 0 0  
Month to date cooling degree days 0 0  
Year to date cooling degree days 0 0  
Moisture  
Dew Point 19 °F    
Average Humidity 53    
Maximum Humidity 72    
Minimum Humidity 33    
Precipitation  
Precipitation 0.00 in 0.08 in 1.21 in (1957)
Month to date precipitation 0.53 0.74  
Year to date precipitation 2.60 3.18  
Sea Level Pressure  
Sea Level Pressure 30.22 in    
Wind  
Wind Speed 6 mph (WNW)    
Max Wind Speed 17 mph    
Max Gust Speed 21 mph    
Visibility 10 miles    
Events      
T = Trace of Precipitation, MM = Missing Value Source: NWS Daily Summary

Daily Weather History Graph

Daily Weather History Graph

Search for Another Location

Airport or City:

Trip Planner

Search our weather history database for the weather conditions in past years. The results will help you decide how hot, cold, wet, or windy it might be!

Date:

Astronomy

Feb. 09, 2012 Rise Set
Actual Time 7:11 AM EST 5:41 PM EST
Civil Twilight 6:43 AM EST 6:09 PM EST
Nautical Twilight 6:12 AM EST 6:40 PM EST
Astronomical Twilight 5:40 AM EST 7:12 PM EST
Moon 8:06 PM EST (2/9) 7:47 AM EST (2/9)
Length of Visible Light 11h 25m
Length of Day
10h 29m
Waning Gibbous, 96% of the Moon is Illuminated
Feb 9
Waning Gibbous
Feb 14
Last Quarter
Feb 21
New
Feb 29
First Quarter
Mar 8
Full

Hourly Weather History & Observations

Time (EST) Temp. Windchill Dew Point Humidity Pressure Visibility Wind Dir Wind Speed Gust Speed Precip Events Conditions
12:50 AM 33.8 °F 28.6 °F 26.6 °F 75% 30.17 in 10.0 mi NW 5.8 mph - N/A   Overcast
12:53 AM 34.0 °F 28.0 °F 25.0 °F 70% 30.19 in 10.0 mi NW 6.9 mph - N/A   Overcast
1:06 AM 33.8 °F 24.8 °F 24.8 °F 70% 30.17 in 10.0 mi WNW 12.7 mph 18.4 mph N/A   Mostly Cloudy
1:53 AM 32.0 °F 22.1 °F 24.1 °F 73% 30.19 in 10.0 mi WNW 13.8 mph - N/A   Clear
2:53 AM 32.0 °F 25.6 °F 21.9 °F 66% 30.21 in 10.0 mi NW 6.9 mph - N/A   Partly Cloudy
3:53 AM 30.9 °F 22.8 °F 21.9 °F 69% 30.20 in 10.0 mi NW 9.2 mph - N/A   Clear
4:53 AM 30.0 °F 24.1 °F 21.0 °F 69% 30.21 in 10.0 mi NW 5.8 mph - N/A   Clear
5:53 AM 30.0 °F 21.1 °F 16.0 °F 56% 30.22 in 10.0 mi NW 10.4 mph - N/A   Clear
6:53 AM 30.0 °F - 15.1 °F 54% 30.25 in 10.0 mi Calm Calm - N/A   Clear
7:53 AM 30.0 °F - 15.1 °F 54% 30.27 in 10.0 mi Calm Calm - N/A   Clear
8:53 AM 32.0 °F 24.8 °F 19.0 °F 59% 30.28 in 10.0 mi WNW 8.1 mph - N/A   Clear
9:53 AM 34.0 °F 26.0 °F 19.0 °F 54% 30.28 in 10.0 mi WNW 10.4 mph - N/A   Clear
10:53 AM 36.0 °F 28.0 °F 18.0 °F 48% 30.28 in 10.0 mi WNW 11.5 mph - N/A   Clear
11:53 AM 39.0 °F 32.8 °F 19.9 °F 46% 30.25 in 10.0 mi WNW 9.2 mph - N/A   Clear
12:53 PM 41.0 °F 33.9 °F 19.9 °F 43% 30.23 in 10.0 mi West 12.7 mph 16.1 mph N/A   Clear
1:53 PM 42.1 °F 39.2 °F 18.0 °F 38% 30.20 in 10.0 mi WSW 4.6 mph - N/A   Clear
2:53 PM 44.1 °F 40.8 °F 17.1 °F 34% 30.19 in 10.0 mi WNW 5.8 mph - N/A   Clear
3:53 PM 44.1 °F 39.0 °F 17.1 °F 34% 30.20 in 10.0 mi WNW 9.2 mph - N/A   Clear
4:53 PM 42.1 °F 37.1 °F 19.0 °F 40% 30.20 in 10.0 mi WSW 8.1 mph - N/A   Clear
5:53 PM 37.9 °F - 18.0 °F 45% 30.19 in 10.0 mi Calm Calm - N/A   Clear
6:53 PM 37.0 °F 34.5 °F 16.0 °F 42% 30.19 in 10.0 mi WNW 3.5 mph - N/A   Clear
7:53 PM 32.0 °F - 18.0 °F 56% 30.20 in 10.0 mi Calm Calm - N/A   Clear
8:53 PM 28.0 °F - 18.0 °F 66% 30.20 in 10.0 mi Calm Calm - N/A   Clear
9:53 PM 28.0 °F - 18.0 °F 66% 30.20 in 10.0 mi Calm Calm - N/A   Clear
10:53 PM 30.0 °F - 19.9 °F 66% 30.20 in 10.0 mi Calm Calm - N/A   Clear
11:53 PM 28.9 °F - 21.0 °F 72% 30.20 in 10.0 mi Calm Calm - N/A   Clear